Weather History for Weslaco, TX

Change the Weather History Date:

Monday, November 19, 2012

  Actual Average (KMFE) Record (KMFE)
Temperature  
Mean Temperature 71 °F 68 °F  
Max Temperature 82 °F 79 °F 93 °F (2011)
Min Temperature 60 °F 58 °F 33 °F (1896)
Degree Days  
Heating Degree Days 0 2  
Month to date heating degree days 24  
Since 1 July heating degree days 29  
Cooling Degree Days 6 5  
Month to date cooling degree days 138  
Year to date cooling degree days 4320  
Growing Degree Days 21 (Base 50)    
Moisture  
Dew Point 56 °F    
Average Humidity 61    
Maximum Humidity 82    
Minimum Humidity 39    
Precipitation  
Precipitation 0.00 in 0.02 in 0.59 in (1976)
Month to date precipitation 0.60  
Year to date precipitation 20.72  
Sea Level Pressure  
Sea Level Pressure 30.17 in    
Wind  
Wind Speed 3 mph (ESE)    
Max Wind Speed 13 mph    
Max Gust Speed 16 mph    
Visibility 10 miles    
Events      
T = Trace of Precipitation, MM = Missing Value Source: NWS Daily Summary

Daily Weather History Graph

Daily Weather History Graph

Search for Another Location

Airport:

Trip Planner

Search our weather history database for the weather conditions in past years. The results will help you decide how hot, cold, wet, or windy it might be!

Date:

Astronomy

Nov. 19, 2012 Rise Set
Actual Time 6:53 AM CST 5:40 PM CST
Civil Twilight 6:29 AM CST 6:05 PM CST
Nautical Twilight 6:01 AM CST 6:33 PM CST
Astronomical Twilight 5:33 AM CST 7:01 PM CST
Moon 12:10 PM CST (11/19) 11:53 PM CST (11/19)
Length of Visible Light 11h 36m
Length of Day
10h 47m
Waxing Crescent, 41% of the Moon is Illuminated
Nov 19
Waxing Crescent
Nov 20
First Quarter
Nov 28
Full
Dec 6
Last Quarter
Dec 13
New

Hourly Weather History & Observations

Time (CST) Temp. Heat Index Dew Point Humidity Pressure Visibility Wind Dir Wind Speed Gust Speed Precip Events Conditions
12:15 AM 64.4 °F - 55.4 °F 73% 30.19 in 10.0 mi Calm Calm - N/A   Unknown
12:35 AM 64.4 °F - 55.4 °F 73% 30.19 in 10.0 mi East 3.5 mph - N/A   Unknown
12:55 AM 62.6 °F - 55.4 °F 77% 30.19 in 10.0 mi Calm Calm - N/A   Unknown
1:15 AM 62.6 °F - 53.6 °F 72% 30.19 in 10.0 mi Calm Calm - N/A   Unknown
1:35 AM 62.6 °F - 53.6 °F 72% 30.19 in 10.0 mi Calm Calm - N/A   Unknown
1:55 AM 62.6 °F - 55.4 °F 77% 30.19 in 10.0 mi Calm Calm - N/A   Unknown
2:15 AM 60.8 °F - 55.4 °F 82% 30.19 in 10.0 mi Calm Calm - N/A   Unknown
2:35 AM 62.6 °F - 55.4 °F 77% 30.18 in 10.0 mi Calm Calm - N/A   Unknown
2:55 AM 62.6 °F - 55.4 °F 77% 30.18 in 10.0 mi Calm Calm - N/A   Unknown
3:15 AM 62.6 °F - 55.4 °F 77% 30.16 in 10.0 mi Calm Calm - N/A   Unknown
3:35 AM 62.6 °F - 55.4 °F 77% 30.16 in 10.0 mi ESE 3.5 mph - N/A   Unknown
3:55 AM 62.6 °F - 55.4 °F 77% 30.16 in 10.0 mi ESE 4.6 mph - N/A   Unknown
4:15 AM 64.4 °F - 55.4 °F 73% 30.16 in 10.0 mi Calm Calm - N/A   Unknown
4:35 AM 62.6 °F - 53.6 °F 72% 30.16 in 10.0 mi ESE 3.5 mph - N/A   Unknown
4:55 AM 62.6 °F - 55.4 °F 77% 30.16 in 10.0 mi Calm Calm - N/A   Unknown
5:15 AM 64.4 °F - 55.4 °F 73% 30.16 in 10.0 mi East 3.5 mph - N/A   Unknown
5:35 AM 62.6 °F - 55.4 °F 77% 30.16 in 10.0 mi East 4.6 mph - N/A   Unknown
5:55 AM 62.6 °F - 55.4 °F 77% 30.16 in 10.0 mi ENE 3.5 mph - N/A   Unknown
6:15 AM 62.6 °F - 55.4 °F 77% 30.17 in 10.0 mi East 3.5 mph - N/A   Unknown
6:35 AM 62.6 °F - 55.4 °F 77% 30.18 in 10.0 mi East 3.5 mph - N/A   Unknown
6:55 AM 64.4 °F - 55.4 °F 73% 30.17 in 10.0 mi East 4.6 mph - N/A   Unknown
7:35 AM 64.4 °F - 55.4 °F 73% 30.18 in 10.0 mi East 3.5 mph - N/A   Unknown
7:55 AM 64.4 °F - 55.4 °F 73% 30.20 in 10.0 mi Calm Calm - N/A   Unknown
8:15 AM 66.2 °F - 55.4 °F 68% 30.21 in 10.0 mi East 4.6 mph - N/A   Unknown
8:35 AM 68.0 °F - 55.4 °F 64% 30.21 in 10.0 mi East 4.6 mph - N/A   Unknown
8:55 AM 69.8 °F - 57.2 °F 64% 30.22 in 10.0 mi East 5.8 mph - N/A   Unknown
9:15 AM 71.6 °F - 57.2 °F 60% 30.22 in 10.0 mi East 6.9 mph - N/A   Unknown
9:35 AM 73.4 °F - 57.2 °F 57% 30.23 in 10.0 mi ESE 5.8 mph - N/A   Unknown
9:55 AM 73.4 °F - 57.2 °F 57% 30.23 in 10.0 mi ESE 8.1 mph - N/A   Unknown
10:15 AM 78.8 °F - 57.2 °F 47% 30.23 in 10.0 mi ESE 10.4 mph - N/A   Unknown
10:35 AM 77.0 °F - 55.4 °F 47% 30.22 in 10.0 mi SE 9.2 mph - N/A   Unknown
10:55 AM 78.8 °F - 55.4 °F 44% 30.22 in 10.0 mi ESE 10.4 mph - N/A   Unknown
11:15 AM 78.8 °F - 55.4 °F 44% 30.21 in 10.0 mi SSE 8.1 mph - N/A   Unknown
11:35 AM 80.6 °F 80.5 °F 55.4 °F 42% 30.21 in 10.0 mi SSE 9.2 mph - N/A   Unknown
11:55 AM 80.6 °F 80.5 °F 55.4 °F 42% 30.20 in 10.0 mi East 4.6 mph - N/A   Unknown
12:15 PM 80.6 °F 80.5 °F 55.4 °F 42% 30.18 in 10.0 mi ESE 6.9 mph - N/A   Unknown
12:35 PM 80.6 °F 80.5 °F 55.4 °F 42% 30.18 in 10.0 mi ESE 8.1 mph - N/A   Unknown
12:55 PM 80.6 °F 80.5 °F 55.4 °F 42% 30.16 in 10.0 mi Calm Calm - N/A   Unknown
1:15 PM 82.4 °F 81.7 °F 55.4 °F 39% 30.16 in 10.0 mi East 3.5 mph - N/A   Unknown
1:35 PM 82.4 °F 81.7 °F 55.4 °F 39% 30.14 in 10.0 mi Calm Calm - N/A   Unknown
1:55 PM 80.6 °F 80.5 °F 55.4 °F 42% 30.13 in 10.0 mi ENE 4.6 mph - N/A   Unknown
2:15 PM 80.6 °F 80.5 °F 55.4 °F 42% 30.13 in 10.0 mi SSE 3.5 mph - N/A   Unknown
2:35 PM 80.6 °F 80.5 °F 55.4 °F 42% 30.12 in 10.0 mi ESE 4.6 mph - N/A   Unknown
2:55 PM 80.6 °F 80.5 °F 55.4 °F 42% 30.12 in 10.0 mi East 5.8 mph - N/A   Unknown
3:15 PM 80.6 °F 80.5 °F 55.4 °F 42% 30.10 in 10.0 mi East 4.6 mph - N/A   Unknown
3:35 PM 80.6 °F 80.5 °F 55.4 °F 42% 30.10 in 10.0 mi ESE 5.8 mph - N/A   Unknown
3:55 PM 78.8 °F - 55.4 °F 44% 30.10 in 10.0 mi ESE 8.1 mph - N/A   Unknown
4:15 PM 78.8 °F - 57.2 °F 47% 30.11 in 10.0 mi East 6.9 mph - N/A   Unknown
4:35 PM 77.0 °F - 57.2 °F 50% 30.11 in 10.0 mi East 6.9 mph - N/A   Unknown
4:55 PM 77.0 °F - 55.4 °F 47% 30.12 in 10.0 mi ESE 8.1 mph - N/A   Unknown
5:15 PM 77.0 °F - 55.4 °F 47% 30.12 in 10.0 mi East 6.9 mph - N/A   Unknown
5:35 PM 77.0 °F - 55.4 °F 47% 30.13 in 10.0 mi ESE 9.2 mph - N/A   Unknown
5:55 PM 75.2 °F - 55.4 °F 50% 30.13 in 10.0 mi East 12.7 mph 16.1 mph N/A   Unknown
6:15 PM 73.4 °F - 55.4 °F 53% 30.14 in 10.0 mi ESE 10.4 mph - N/A   Unknown
6:35 PM 73.4 °F - 55.4 °F 53% 30.15 in 10.0 mi East 6.9 mph - N/A   Unknown
6:55 PM 71.6 °F - 55.4 °F 57% 30.16 in 10.0 mi East 8.1 mph - N/A   Unknown
7:15 PM 71.6 °F - 55.4 °F 57% 30.16 in 10.0 mi East 6.9 mph - N/A   Unknown
7:35 PM 71.6 °F - 55.4 °F 57% 30.17 in 10.0 mi ESE 8.1 mph - N/A   Unknown
7:55 PM 69.8 °F - 55.4 °F 60% 30.18 in 10.0 mi ESE 4.6 mph - N/A   Unknown
8:15 PM 69.8 °F - 55.4 °F 60% 30.18 in 10.0 mi ESE 4.6 mph - N/A   Unknown
8:35 PM 69.8 °F - 55.4 °F 60% 30.18 in 10.0 mi ESE 4.6 mph - N/A   Unknown
9:15 PM 68.0 °F - 57.2 °F 68% 30.18 in 10.0 mi East 3.5 mph - N/A   Unknown
9:35 PM 66.2 °F - 55.4 °F 68% 30.19 in 10.0 mi Calm Calm - N/A   Unknown
9:55 PM 62.6 °F - 55.4 °F 77% 30.19 in 10.0 mi Calm Calm - N/A   Unknown
10:15 PM 64.4 °F - 57.2 °F 77% 30.18 in 10.0 mi Calm Calm - N/A   Unknown
10:35 PM 66.2 °F - 57.2 °F 73% 30.18 in 10.0 mi Calm Calm - N/A   Unknown
10:55 PM 66.2 °F - 57.2 °F 73% 30.18 in 10.0 mi Calm Calm - N/A   Unknown
11:15 PM 64.4 °F - 57.2 °F 77% 30.18 in 10.0 mi Calm Calm - N/A   Unknown
11:35 PM 62.6 °F - 55.4 °F 77% 30.17 in 10.0 mi Calm Calm - N/A   Unknown
11:55 PM 62.6 °F - 55.4 °F 77% 30.17 in 10.0 mi Calm Calm - N/A   Unknown